Year,Month,Day,Hour,Minute,Value (Times are PST for temperature in C)
2016,03,23,00,00,6.30
2016,03,23,00,01,6.30
2016,03,23,00,02,6.30
2016,03,23,00,03,6.30
2016,03,23,00,04,6.30
2016,03,23,00,05,6.30
2016,03,23,00,06,6.20
2016,03,23,00,07,6.20
2016,03,23,00,08,6.20
2016,03,23,00,09,6.20
2016,03,23,00,10,6.20
2016,03,23,00,11,6.20
2016,03,23,00,12,6.20
2016,03,23,00,13,6.20
2016,03,23,00,14,6.20
2016,03,23,00,15,6.20
2016,03,23,00,16,6.20
2016,03,23,00,17,6.20
2016,03,23,00,18,6.20
2016,03,23,00,19,6.20
2016,03,23,00,20,6.20
2016,03,23,00,21,6.20
2016,03,23,00,22,6.10
2016,03,23,00,23,6.10
2016,03,23,00,24,6.10
2016,03,23,00,25,6.10
2016,03,23,00,26,6.10
2016,03,23,00,27,6.10
2016,03,23,00,28,6.10
2016,03,23,00,29,6.10
2016,03,23,00,30,6.10
2016,03,23,00,31,6.00
2016,03,23,00,32,6.00
2016,03,23,00,33,6.00
2016,03,23,00,34,6.00
2016,03,23,00,35,6.00
2016,03,23,00,36,6.00
2016,03,23,00,37,6.00
2016,03,23,00,38,6.00
2016,03,23,00,39,6.00
2016,03,23,00,40,6.00
2016,03,23,00,41,6.00
2016,03,23,00,42,6.00
2016,03,23,00,43,6.00
2016,03,23,00,44,6.00
2016,03,23,00,45,6.00
2016,03,23,00,46,6.00
2016,03,23,00,47,6.00
2016,03,23,00,48,6.00
2016,03,23,00,49,6.00
2016,03,23,00,50,6.00
2016,03,23,00,51,6.00
2016,03,23,00,52,6.10
2016,03,23,00,53,6.10
2016,03,23,00,54,6.10
2016,03,23,00,55,6.10
2016,03,23,00,56,6.20
2016,03,23,00,57,6.20
2016,03,23,00,58,6.20
2016,03,23,00,59,6.20
2016,03,23,01,00,6.20
2016,03,23,01,01,6.20
2016,03,23,01,02,6.10
2016,03,23,01,03,6.10
2016,03,23,01,04,6.10
2016,03,23,01,05,6.10
2016,03,23,01,06,6.10
2016,03,23,01,07,6.10
2016,03,23,01,08,6.10
2016,03,23,01,09,6.10
2016,03,23,01,10,6.10
2016,03,23,01,11,6.10
2016,03,23,01,12,6.10
2016,03,23,01,13,6.10
2016,03,23,01,14,6.10
2016,03,23,01,15,6.00
2016,03,23,01,16,6.00
2016,03,23,01,17,6.00
2016,03,23,01,18,6.00
2016,03,23,01,19,6.00
2016,03,23,01,20,6.10
2016,03,23,01,21,6.00
2016,03,23,01,22,6.00
2016,03,23,01,23,6.00
2016,03,23,01,24,6.00
2016,03,23,01,25,6.00
2016,03,23,01,26,6.00
2016,03,23,01,27,6.00
2016,03,23,01,28,6.00
2016,03,23,01,29,6.00
2016,03,23,01,30,6.00
2016,03,23,01,31,6.00
2016,03,23,01,32,6.00
2016,03,23,01,33,6.00
2016,03,23,01,34,6.00
2016,03,23,01,35,6.00
2016,03,23,01,36,6.00
2016,03,23,01,37,6.00
2016,03,23,01,38,6.00
2016,03,23,01,39,6.00
2016,03,23,01,40,6.00
2016,03,23,01,41,6.10
2016,03,23,01,42,6.00
2016,03,23,01,43,6.00
2016,03,23,01,44,6.10
2016,03,23,01,45,6.00
2016,03,23,01,46,6.00
2016,03,23,01,47,6.00
2016,03,23,01,48,6.00
2016,03,23,01,49,6.00
2016,03,23,01,50,6.00
2016,03,23,01,51,6.00
2016,03,23,01,52,6.00
2016,03,23,01,53,6.00
2016,03,23,01,54,6.00
2016,03,23,01,55,6.00
2016,03,23,01,56,6.00
2016,03,23,01,57,6.00
2016,03,23,01,58,6.00
2016,03,23,01,59,6.00
2016,03,23,02,00,6.00
2016,03,23,02,01,6.00
2016,03,23,02,02,6.00
2016,03,23,02,03,6.00
2016,03,23,02,04,6.00
2016,03,23,02,05,6.00
2016,03,23,02,06,6.10
2016,03,23,02,07,6.10
2016,03,23,02,08,6.10
2016,03,23,02,09,6.10
2016,03,23,02,10,6.10
2016,03,23,02,11,6.10
2016,03,23,02,12,6.10
2016,03,23,02,13,6.10
2016,03,23,02,14,6.10
2016,03,23,02,15,6.20
2016,03,23,02,16,6.20
2016,03,23,02,17,6.20
2016,03,23,02,18,6.20
2016,03,23,02,19,6.30
2016,03,23,02,20,6.30
2016,03,23,02,21,6.30
2016,03,23,02,22,6.40
2016,03,23,02,23,6.40
2016,03,23,02,24,6.40
2016,03,23,02,25,6.50
2016,03,23,02,26,6.50
2016,03,23,02,27,6.50
2016,03,23,02,28,6.50
2016,03,23,02,29,6.50
2016,03,23,02,30,6.40
2016,03,23,02,31,6.40
2016,03,23,02,32,6.40
2016,03,23,02,33,6.40
2016,03,23,02,34,6.30
2016,03,23,02,35,6.30
2016,03,23,02,36,6.30
2016,03,23,02,37,6.30
2016,03,23,02,38,6.30
2016,03,23,02,39,6.30
2016,03,23,02,40,6.30
2016,03,23,02,41,6.30
2016,03,23,02,42,6.30
2016,03,23,02,43,6.30
2016,03,23,02,44,6.30
2016,03,23,02,45,6.30
2016,03,23,02,46,6.30
2016,03,23,02,47,6.30
2016,03,23,02,48,6.30
2016,03,23,02,49,6.30
2016,03,23,02,50,6.30
2016,03,23,02,51,6.30
2016,03,23,02,52,6.30
2016,03,23,02,53,6.30
2016,03,23,02,54,6.30
2016,03,23,02,55,6.30
2016,03,23,02,56,6.30
2016,03,23,02,57,6.40
2016,03,23,02,58,6.40
2016,03,23,02,59,6.40
2016,03,23,03,00,6.40
2016,03,23,03,01,6.40
2016,03,23,03,02,6.50
2016,03,23,03,03,6.50
2016,03,23,03,04,6.60
2016,03,23,03,05,6.60
2016,03,23,03,06,6.60
2016,03,23,03,07,6.70
2016,03,23,03,08,6.70
2016,03,23,03,09,6.70
2016,03,23,03,10,6.70
2016,03,23,03,11,6.80
2016,03,23,03,12,6.80
2016,03,23,03,13,6.80
2016,03,23,03,14,6.90
2016,03,23,03,15,6.90
2016,03,23,03,16,6.90
2016,03,23,03,17,7.00
2016,03,23,03,18,7.00
2016,03,23,03,19,7.00
2016,03,23,03,20,7.10
2016,03,23,03,21,7.10
2016,03,23,03,22,7.10
2016,03,23,03,23,7.10
2016,03,23,03,24,7.10
2016,03,23,03,25,7.10
2016,03,23,03,26,7.10
2016,03,23,03,27,7.00
2016,03,23,03,28,7.00
2016,03,23,03,29,7.00
2016,03,23,03,30,7.00
2016,03,23,03,31,7.00
2016,03,23,03,32,7.00
2016,03,23,03,33,7.00
2016,03,23,03,34,7.10
2016,03,23,03,35,7.10
2016,03,23,03,36,7.10
2016,03,23,03,37,7.10
2016,03,23,03,38,7.00
2016,03,23,03,39,7.00
2016,03,23,03,40,7.10
2016,03,23,03,41,7.10
2016,03,23,03,42,7.10
2016,03,23,03,43,7.10
2016,03,23,03,44,7.10
2016,03,23,03,45,7.10
2016,03,23,03,46,7.10
2016,03,23,03,47,7.10
2016,03,23,03,48,7.10
2016,03,23,03,49,7.10
2016,03,23,03,50,7.10
2016,03,23,03,51,7.20
2016,03,23,03,52,7.20
2016,03,23,03,53,7.20
2016,03,23,03,54,7.20
2016,03,23,03,55,7.20
2016,03,23,03,56,7.10
2016,03,23,03,57,7.10
2016,03,23,03,58,7.10
2016,03,23,03,59,7.10
2016,03,23,04,00,7.10
2016,03,23,04,01,7.10
2016,03,23,04,02,7.10
2016,03,23,04,03,7.10
2016,03,23,04,04,7.10
2016,03,23,04,05,7.20
2016,03,23,04,06,7.30
2016,03,23,04,07,7.40
2016,03,23,04,08,7.40
2016,03,23,04,09,7.50
2016,03,23,04,10,7.60
2016,03,23,04,11,7.70
2016,03,23,04,12,7.70
2016,03,23,04,13,7.70
2016,03,23,04,14,7.80
2016,03,23,04,15,7.80
2016,03,23,04,16,7.90
2016,03,23,04,17,7.90
2016,03,23,04,18,7.90
2016,03,23,04,19,7.90
2016,03,23,04,20,8.00
2016,03,23,04,21,8.00
2016,03,23,04,22,8.00
2016,03,23,04,23,8.00
2016,03,23,04,24,8.00
2016,03,23,04,25,8.10
2016,03,23,04,26,8.10
2016,03,23,04,27,8.10
2016,03,23,04,28,8.20
2016,03,23,04,29,8.20
2016,03,23,04,30,8.20
2016,03,23,04,31,8.20
2016,03,23,04,32,8.20
2016,03,23,04,33,8.20
2016,03,23,04,34,8.20
2016,03,23,04,35,8.20
2016,03,23,04,36,8.20
2016,03,23,04,37,8.20
2016,03,23,04,38,8.20
2016,03,23,04,39,8.20
2016,03,23,04,40,8.20
2016,03,23,04,41,8.20
2016,03,23,04,42,8.10
2016,03,23,04,43,8.10
2016,03,23,04,44,8.10
2016,03,23,04,45,8.00
2016,03,23,04,46,8.00
2016,03,23,04,47,7.90
2016,03,23,04,48,7.90
2016,03,23,04,49,7.90
2016,03,23,04,50,7.90
2016,03,23,04,51,7.90
2016,03,23,04,52,7.90
2016,03,23,04,53,7.80
2016,03,23,04,54,7.80
2016,03,23,04,55,7.80
2016,03,23,04,56,7.80
2016,03,23,04,57,7.80
2016,03,23,04,58,7.80
2016,03,23,04,59,7.80
2016,03,23,05,00,7.70
2016,03,23,05,01,7.70
2016,03,23,05,02,7.70
2016,03,23,05,03,7.70
2016,03,23,05,04,7.70
2016,03,23,05,05,7.70
2016,03,23,05,06,7.60
2016,03,23,05,07,7.60
2016,03,23,05,08,7.60
2016,03,23,05,09,7.60
2016,03,23,05,10,7.60
2016,03,23,05,11,7.60
2016,03,23,05,12,7.60
2016,03,23,05,13,7.60
2016,03,23,05,14,7.60
2016,03,23,05,15,7.60
2016,03,23,05,16,7.60
2016,03,23,05,17,7.60
2016,03,23,05,18,7.60
2016,03,23,05,19,7.60
2016,03,23,05,20,7.60
2016,03,23,05,21,7.60
2016,03,23,05,22,7.60
2016,03,23,05,23,7.60
2016,03,23,05,24,7.60
2016,03,23,05,25,7.60
2016,03,23,05,26,7.50
2016,03,23,05,27,7.50
2016,03,23,05,28,7.40
2016,03,23,05,29,7.40
2016,03,23,05,30,7.40
2016,03,23,05,31,7.40
2016,03,23,05,32,7.40
2016,03,23,05,33,7.40
2016,03,23,05,34,7.40
2016,03,23,05,35,7.40
2016,03,23,05,36,7.40
2016,03,23,05,37,7.40
2016,03,23,05,38,7.50
2016,03,23,05,39,7.50
2016,03,23,05,40,7.50
2016,03,23,05,41,7.50
2016,03,23,05,42,7.60
2016,03,23,05,43,7.60
2016,03,23,05,44,7.60
2016,03,23,05,45,7.60
2016,03,23,05,46,7.60
2016,03,23,05,47,7.70
2016,03,23,05,48,7.70
2016,03,23,05,49,7.70
2016,03,23,05,50,7.70
2016,03,23,05,51,7.70
2016,03,23,05,52,7.70
2016,03,23,05,53,7.80
2016,03,23,05,54,7.80
2016,03,23,05,55,7.70
2016,03,23,05,56,7.70
2016,03,23,05,57,7.70
2016,03,23,05,58,7.70
2016,03,23,05,59,7.70
2016,03,23,06,00,7.70
2016,03,23,06,01,7.70
2016,03,23,06,02,7.70
2016,03,23,06,03,7.70
2016,03,23,06,04,7.70
2016,03,23,06,05,7.70
2016,03,23,06,06,7.70
2016,03,23,06,07,7.70
2016,03,23,06,08,7.70
2016,03,23,06,09,7.70
2016,03,23,06,10,7.70
2016,03,23,06,11,7.70
2016,03,23,06,12,7.70
2016,03,23,06,13,7.70
2016,03,23,06,14,7.70
2016,03,23,06,15,7.70
2016,03,23,06,16,7.70
2016,03,23,06,17,7.70
2016,03,23,06,18,7.60
2016,03,23,06,19,7.60
2016,03,23,06,20,7.60
2016,03,23,06,21,7.60
2016,03,23,06,22,7.60
2016,03,23,06,23,7.60
2016,03,23,06,24,7.60
2016,03,23,06,25,7.60
2016,03,23,06,26,7.60
2016,03,23,06,27,7.60
2016,03,23,06,28,7.60
2016,03,23,06,29,7.60
2016,03,23,06,30,7.60
2016,03,23,06,31,7.60
2016,03,23,06,32,7.60
2016,03,23,06,33,7.50
2016,03,23,06,34,7.50
2016,03,23,06,35,7.50
2016,03,23,06,36,7.50
2016,03,23,06,37,7.50
2016,03,23,06,38,7.50
2016,03,23,06,39,7.40
2016,03,23,06,40,7.40
2016,03,23,06,41,7.40
2016,03,23,06,42,7.40
2016,03,23,06,43,7.40
2016,03,23,06,44,7.40
2016,03,23,06,45,7.40
2016,03,23,06,46,7.40
2016,03,23,06,47,7.40
2016,03,23,06,48,7.40
2016,03,23,06,49,7.40
2016,03,23,06,50,7.40
2016,03,23,06,51,7.40
2016,03,23,06,52,7.50
2016,03,23,06,53,7.50
2016,03,23,06,54,7.50
2016,03,23,06,55,7.50
2016,03,23,06,56,7.50
2016,03,23,06,57,7.60
2016,03,23,06,58,7.60
2016,03,23,06,59,7.60
2016,03,23,07,00,7.60
2016,03,23,07,01,7.60
2016,03,23,07,02,7.60
2016,03,23,07,03,7.60
2016,03,23,07,04,7.60
2016,03,23,07,05,7.60
2016,03,23,07,06,7.60
2016,03,23,07,07,7.60
2016,03,23,07,08,7.60
2016,03,23,07,09,7.60
2016,03,23,07,10,7.60
2016,03,23,07,11,7.60
2016,03,23,07,12,7.60
2016,03,23,07,13,7.60
2016,03,23,07,14,7.60
2016,03,23,07,15,7.60
2016,03,23,07,16,7.60
2016,03,23,07,17,7.60
2016,03,23,07,18,7.60
2016,03,23,07,19,7.60
2016,03,23,07,20,7.60
2016,03,23,07,21,7.70
2016,03,23,07,22,7.70
2016,03,23,07,23,7.70
2016,03,23,07,24,7.70
2016,03,23,07,25,7.70
2016,03,23,07,26,7.70
2016,03,23,07,27,7.70
2016,03,23,07,28,7.70
2016,03,23,07,29,7.70
2016,03,23,07,30,7.70
2016,03,23,07,31,7.70
2016,03,23,07,32,7.70
2016,03,23,07,33,7.60
2016,03,23,07,34,7.60
2016,03,23,07,35,7.60
2016,03,23,07,36,7.60
2016,03,23,07,37,7.60
2016,03,23,07,38,7.60
2016,03,23,07,39,7.60
2016,03,23,07,40,7.60
2016,03,23,07,41,7.60
2016,03,23,07,42,7.50
2016,03,23,07,43,7.50
2016,03,23,07,44,7.50
2016,03,23,07,45,7.50
2016,03,23,07,46,7.50
2016,03,23,07,47,7.40
2016,03,23,07,48,7.40
2016,03,23,07,49,7.40
2016,03,23,07,50,7.40
2016,03,23,07,51,7.40
2016,03,23,07,52,7.40
2016,03,23,07,53,7.40
2016,03,23,07,54,7.40
2016,03,23,07,55,7.40
2016,03,23,07,56,7.40
2016,03,23,07,57,7.40
2016,03,23,07,58,7.40
2016,03,23,07,59,7.40
2016,03,23,08,00,7.40
2016,03,23,08,01,7.40
2016,03,23,08,02,7.30
2016,03,23,08,03,7.40
2016,03,23,08,04,7.40
2016,03,23,08,05,7.40
2016,03,23,08,06,7.40
2016,03,23,08,07,7.40
2016,03,23,08,08,7.40
2016,03,23,08,09,7.40
2016,03,23,08,10,7.40
2016,03,23,08,11,7.40
2016,03,23,08,12,7.40
2016,03,23,08,13,7.40
2016,03,23,08,14,7.50
2016,03,23,08,15,7.50
2016,03,23,08,16,7.50
2016,03,23,08,17,7.50
2016,03,23,08,18,7.50
2016,03,23,08,19,7.60
2016,03,23,08,20,7.60
2016,03,23,08,21,7.60
2016,03,23,08,22,7.60
2016,03,23,08,23,7.70
2016,03,23,08,24,7.70
2016,03,23,08,25,7.70
2016,03,23,08,26,7.80
2016,03,23,08,27,7.80
2016,03,23,08,28,7.80
2016,03,23,08,29,7.80
2016,03,23,08,30,7.80
2016,03,23,08,31,7.90
2016,03,23,08,32,7.90
2016,03,23,08,33,7.90
2016,03,23,08,34,7.90
2016,03,23,08,35,7.90
2016,03,23,08,36,7.90
2016,03,23,08,37,8.00
2016,03,23,08,38,8.00
2016,03,23,08,39,8.00
2016,03,23,08,40,8.00
2016,03,23,08,41,8.10
2016,03,23,08,42,8.10
2016,03,23,08,43,8.10
2016,03,23,08,44,8.10
2016,03,23,08,45,8.10
2016,03,23,08,46,8.10
2016,03,23,08,47,8.10
2016,03,23,08,48,8.10
2016,03,23,08,49,8.10
2016,03,23,08,50,8.10
2016,03,23,08,51,8.10
2016,03,23,08,52,8.10
2016,03,23,08,53,8.10
2016,03,23,08,54,8.10
2016,03,23,08,55,8.10
2016,03,23,08,56,8.10
2016,03,23,08,57,8.10
2016,03,23,08,58,8.10
2016,03,23,08,59,8.10
2016,03,23,09,00,8.10
2016,03,23,09,01,8.10
2016,03,23,09,02,8.10
2016,03,23,09,03,8.20
2016,03,23,09,04,8.20
2016,03,23,09,05,8.20
2016,03,23,09,06,8.20
2016,03,23,09,07,8.20
2016,03,23,09,08,8.20
2016,03,23,09,09,8.30
2016,03,23,09,10,8.30
2016,03,23,09,11,8.30
2016,03,23,09,12,8.30
2016,03,23,09,13,8.30
2016,03,23,09,14,8.30
2016,03,23,09,15,8.30
2016,03,23,09,16,8.40
2016,03,23,09,17,8.40
2016,03,23,09,18,8.40
2016,03,23,09,19,8.40
2016,03,23,09,20,8.40
2016,03,23,09,21,8.40
2016,03,23,09,22,8.40
2016,03,23,09,23,8.40
2016,03,23,09,24,8.40
2016,03,23,09,25,8.40
2016,03,23,09,26,8.40
2016,03,23,09,27,8.40
2016,03,23,09,28,8.40
2016,03,23,09,29,8.40
2016,03,23,09,30,8.40
2016,03,23,09,31,8.40
2016,03,23,09,32,8.40
2016,03,23,09,33,8.40
2016,03,23,09,34,8.40
2016,03,23,09,35,8.40
2016,03,23,09,36,8.50
2016,03,23,09,37,8.50
2016,03,23,09,38,8.50
2016,03,23,09,39,8.50
2016,03,23,09,40,8.50
2016,03,23,09,41,8.50
2016,03,23,09,42,8.50
2016,03,23,09,43,8.50
2016,03,23,09,44,8.50
2016,03,23,09,45,8.50
2016,03,23,09,46,8.50
2016,03,23,09,47,8.50
2016,03,23,09,48,8.50
2016,03,23,09,49,8.50
2016,03,23,09,50,8.50
2016,03,23,09,51,8.50
2016,03,23,09,52,8.40
2016,03,23,09,53,8.40
2016,03,23,09,54,8.40
2016,03,23,09,55,8.40
2016,03,23,09,56,8.40
2016,03,23,09,57,8.40
2016,03,23,09,58,8.40
2016,03,23,09,59,8.40
2016,03,23,10,00,8.40
2016,03,23,10,01,8.40
2016,03,23,10,02,8.40
2016,03,23,10,03,8.40
2016,03,23,10,04,8.40
2016,03,23,10,05,8.40
2016,03,23,10,06,8.40
2016,03,23,10,07,8.40
2016,03,23,10,08,8.40
2016,03,23,10,09,8.40
2016,03,23,10,10,8.40
2016,03,23,10,11,8.50
2016,03,23,10,12,8.50
2016,03,23,10,13,8.50
2016,03,23,10,14,8.50
2016,03,23,10,15,8.50
2016,03,23,10,16,8.50
2016,03,23,10,17,8.50
2016,03,23,10,18,8.50
2016,03,23,10,19,8.50
2016,03,23,10,20,8.50
2016,03,23,10,21,8.60
2016,03,23,10,22,8.60
2016,03,23,10,23,8.60
2016,03,23,10,24,8.60
2016,03,23,10,25,8.60
2016,03,23,10,26,8.60
2016,03,23,10,27,8.70
2016,03,23,10,28,8.70
2016,03,23,10,29,8.70
2016,03,23,10,30,8.70
2016,03,23,10,31,8.80
2016,03,23,10,32,8.80
2016,03,23,10,33,8.80
2016,03,23,10,34,8.80
2016,03,23,10,35,8.80
2016,03,23,10,36,8.80
2016,03,23,10,37,8.80
2016,03,23,10,38,8.80
2016,03,23,10,39,8.80
2016,03,23,10,40,8.80
2016,03,23,10,41,8.80
2016,03,23,10,42,8.80
2016,03,23,10,43,8.80
2016,03,23,10,44,8.80
2016,03,23,10,45,8.80
2016,03,23,10,46,8.80
2016,03,23,10,47,8.80
2016,03,23,10,48,8.80
2016,03,23,10,49,8.90
2016,03,23,10,50,8.90
2016,03,23,10,51,8.90
2016,03,23,10,52,8.90
2016,03,23,10,53,8.90
2016,03,23,10,54,8.90
2016,03,23,10,55,8.90
2016,03,23,10,56,8.90
2016,03,23,10,57,8.90
2016,03,23,10,58,8.90
2016,03,23,10,59,8.90
2016,03,23,11,00,9.00
2016,03,23,11,01,8.90
2016,03,23,11,02,9.00
2016,03,23,11,03,9.00
2016,03,23,11,04,9.00
2016,03,23,11,05,9.00
2016,03,23,11,06,9.00
2016,03,23,11,07,9.00
2016,03,23,11,08,9.10
2016,03,23,11,09,9.10
2016,03,23,11,10,9.10
2016,03,23,11,11,9.10
2016,03,23,11,12,9.20
2016,03,23,11,13,9.20
2016,03,23,11,14,9.20
2016,03,23,11,15,9.20
2016,03,23,11,16,9.20
2016,03,23,11,17,9.20
2016,03,23,11,18,9.20
2016,03,23,11,19,9.20
2016,03,23,11,20,9.20
2016,03,23,11,21,9.20
2016,03,23,11,22,9.30
2016,03,23,11,23,9.30
2016,03,23,11,24,9.40
2016,03,23,11,25,9.40
2016,03,23,11,26,9.40
2016,03,23,11,27,9.50
2016,03,23,11,28,9.50
2016,03,23,11,29,9.50
2016,03,23,11,30,9.60
2016,03,23,11,31,9.60
2016,03,23,11,32,9.60
2016,03,23,11,33,9.60
2016,03,23,11,34,9.60
2016,03,23,11,35,9.60
2016,03,23,11,36,9.60
2016,03,23,11,37,9.60
2016,03,23,11,38,9.60
2016,03,23,11,39,9.60
2016,03,23,11,40,9.60
2016,03,23,11,41,9.60
2016,03,23,11,42,9.60
2016,03,23,11,43,9.60
2016,03,23,11,44,9.60
2016,03,23,11,45,9.60
2016,03,23,11,46,9.60
2016,03,23,11,47,9.60
2016,03,23,11,48,9.60
2016,03,23,11,49,9.60
2016,03,23,11,50,9.60
2016,03,23,11,51,9.50
2016,03,23,11,52,9.50
2016,03,23,11,53,9.40
2016,03,23,11,54,9.40
2016,03,23,11,55,9.40
2016,03,23,11,56,9.30
2016,03,23,11,57,9.30
2016,03,23,11,58,9.30
2016,03,23,11,59,9.30
2016,03,23,12,00,9.30
2016,03,23,12,01,9.30
2016,03,23,12,02,9.30
2016,03,23,12,03,9.30
2016,03,23,12,04,9.40
2016,03,23,12,05,9.40
2016,03,23,12,06,9.40
2016,03,23,12,07,9.40
2016,03,23,12,08,9.50
2016,03,23,12,09,9.50
2016,03,23,12,10,9.60
2016,03,23,12,11,9.60
2016,03,23,12,12,9.60
2016,03,23,12,13,9.60
2016,03,23,12,14,9.60
2016,03,23,12,15,9.50
2016,03,23,12,16,9.50
2016,03,23,12,17,9.60
2016,03,23,12,18,9.60
2016,03,23,12,19,9.60
2016,03,23,12,20,9.60
2016,03,23,12,21,9.60
2016,03,23,12,22,9.60
2016,03,23,12,23,9.60
2016,03,23,12,24,9.60
2016,03,23,12,25,9.60
2016,03,23,12,26,9.60
2016,03,23,12,27,9.50
2016,03,23,12,28,9.50
2016,03,23,12,29,9.40
2016,03,23,12,30,9.40
2016,03,23,12,31,9.30
2016,03,23,12,32,9.30
2016,03,23,12,33,9.30
2016,03,23,12,34,9.20
2016,03,23,12,35,9.20
2016,03,23,12,36,9.20
2016,03,23,12,37,9.20
2016,03,23,12,38,9.10
2016,03,23,12,39,9.10
2016,03,23,12,40,9.10
2016,03,23,12,41,9.10
2016,03,23,12,42,9.10
2016,03,23,12,43,9.10
2016,03,23,12,44,9.10
2016,03,23,12,45,9.10
2016,03,23,12,46,9.10
2016,03,23,12,47,9.00
2016,03,23,12,48,9.00
2016,03,23,12,49,9.00
2016,03,23,12,50,9.00
2016,03,23,12,51,8.90
2016,03,23,12,52,8.90
2016,03,23,12,53,8.90
2016,03,23,12,54,8.90
2016,03,23,12,55,8.90
2016,03,23,12,56,8.90
2016,03,23,12,57,8.90
2016,03,23,12,58,8.90
2016,03,23,12,59,8.90
2016,03,23,13,00,8.90
2016,03,23,13,01,8.90
2016,03,23,13,02,8.90
2016,03,23,13,03,8.90
2016,03,23,13,04,8.90
2016,03,23,13,05,8.90
2016,03,23,13,06,8.90
2016,03,23,13,07,8.90
2016,03,23,13,08,8.90
2016,03,23,13,09,8.90
2016,03,23,13,10,8.90
2016,03,23,13,11,8.90
2016,03,23,13,12,8.90
2016,03,23,13,13,8.90
2016,03,23,13,14,8.90
2016,03,23,13,15,9.00
2016,03,23,13,16,9.00
2016,03,23,13,17,8.90
2016,03,23,13,18,8.90
2016,03,23,13,19,8.90
2016,03,23,13,20,8.80
2016,03,23,13,21,8.80
2016,03,23,13,22,8.80
2016,03,23,13,23,8.80
2016,03,23,13,24,8.80
2016,03,23,13,25,8.80
2016,03,23,13,26,8.80
2016,03,23,13,27,8.80
2016,03,23,13,28,8.80
2016,03,23,13,29,8.80
2016,03,23,13,30,8.80
2016,03,23,13,31,8.80
2016,03,23,13,32,8.80
2016,03,23,13,33,8.80
2016,03,23,13,34,8.80
2016,03,23,13,35,8.80
2016,03,23,13,36,8.80
2016,03,23,13,37,8.80
2016,03,23,13,38,8.80
2016,03,23,13,39,8.80
2016,03,23,13,40,8.80
2016,03,23,13,41,8.80
2016,03,23,13,42,8.80
2016,03,23,13,43,8.80
2016,03,23,13,44,8.80
2016,03,23,13,45,8.80
2016,03,23,13,46,8.80
2016,03,23,13,47,8.70
2016,03,23,13,48,8.70
2016,03,23,13,49,8.70
2016,03,23,13,50,8.70
2016,03,23,13,51,8.70
2016,03,23,13,52,8.70
2016,03,23,13,53,8.70
2016,03,23,13,54,8.70
2016,03,23,13,55,8.70
2016,03,23,13,56,8.70
2016,03,23,13,57,8.70
2016,03,23,13,58,8.70
2016,03,23,13,59,8.70
2016,03,23,14,00,8.70
2016,03,23,14,01,8.70
2016,03,23,14,02,8.70
2016,03,23,14,03,8.70
2016,03,23,14,04,8.70
2016,03,23,14,05,8.70
2016,03,23,14,06,8.70
2016,03,23,14,07,8.70
2016,03,23,14,08,8.70
2016,03,23,14,09,8.70
2016,03,23,14,10,8.70
2016,03,23,14,11,8.70
2016,03,23,14,12,8.70
2016,03,23,14,13,8.60
2016,03,23,14,14,8.60
2016,03,23,14,15,8.50
2016,03,23,14,16,8.50
2016,03,23,14,17,8.50
2016,03,23,14,18,8.40
2016,03,23,14,19,8.40
2016,03,23,14,20,8.40
2016,03,23,14,21,8.40
2016,03,23,14,22,8.40
2016,03,23,14,23,8.40
2016,03,23,14,24,8.40
2016,03,23,14,25,8.40
2016,03,23,14,26,8.40
2016,03,23,14,27,8.40
2016,03,23,14,28,8.30
2016,03,23,14,29,8.30
2016,03,23,14,30,8.30
2016,03,23,14,31,8.30
2016,03,23,14,32,8.30
2016,03,23,14,33,8.30
2016,03,23,14,34,8.30
2016,03,23,14,35,8.30
2016,03,23,14,36,8.30
2016,03,23,14,37,8.20
2016,03,23,14,38,8.20
2016,03,23,14,39,8.20
2016,03,23,14,40,8.20
2016,03,23,14,41,8.20
2016,03,23,14,42,8.20
2016,03,23,14,43,8.20
2016,03,23,14,44,8.20
2016,03,23,14,45,8.20
2016,03,23,14,46,8.20
2016,03,23,14,47,8.20
2016,03,23,14,48,8.20
2016,03,23,14,49,8.20
2016,03,23,14,50,8.20
2016,03,23,14,51,8.20
2016,03,23,14,52,8.20
2016,03,23,14,53,8.20
2016,03,23,14,54,8.20
2016,03,23,14,55,8.20
2016,03,23,14,56,8.20
2016,03,23,14,57,8.20
2016,03,23,14,58,8.20
2016,03,23,14,59,8.20
2016,03,23,15,00,8.10
2016,03,23,15,01,8.10
2016,03,23,15,02,8.10
2016,03,23,15,03,8.10
2016,03,23,15,04,8.10
2016,03,23,15,05,8.10
2016,03,23,15,06,8.10
2016,03,23,15,07,8.10
2016,03,23,15,08,8.10
2016,03,23,15,09,8.10
2016,03,23,15,10,8.10
2016,03,23,15,11,8.10
2016,03,23,15,12,8.10
2016,03,23,15,13,8.10
2016,03,23,15,14,8.10
2016,03,23,15,15,8.10
2016,03,23,15,16,8.10
2016,03,23,15,17,8.10
2016,03,23,15,18,8.10
2016,03,23,15,19,8.10
2016,03,23,15,20,8.10
2016,03,23,15,21,8.10
2016,03,23,15,22,8.10
2016,03,23,15,23,8.10
2016,03,23,15,24,8.10
2016,03,23,15,25,8.10
2016,03,23,15,26,8.10
2016,03,23,15,27,8.10
2016,03,23,15,28,8.10
2016,03,23,15,29,8.10
2016,03,23,15,30,8.10
2016,03,23,15,31,8.10
2016,03,23,15,32,8.10
2016,03,23,15,33,8.10
2016,03,23,15,34,8.10
2016,03,23,15,35,8.10
2016,03,23,15,36,8.10
2016,03,23,15,37,8.10
2016,03,23,15,38,8.10
2016,03,23,15,39,8.10
2016,03,23,15,40,8.10
2016,03,23,15,41,8.10
2016,03,23,15,42,8.10
2016,03,23,15,43,8.10
2016,03,23,15,44,8.10
2016,03,23,15,45,8.10
2016,03,23,15,46,8.10
2016,03,23,15,47,8.10
2016,03,23,15,48,8.10
2016,03,23,15,49,8.10
2016,03,23,15,50,8.10
2016,03,23,15,51,8.10
2016,03,23,15,52,8.10
2016,03,23,15,53,8.10
2016,03,23,15,54,8.10
2016,03,23,15,55,8.10
2016,03,23,15,56,8.10
2016,03,23,15,57,8.10
2016,03,23,15,58,8.10
2016,03,23,15,59,8.10
2016,03,23,16,00,8.10
2016,03,23,16,01,8.10
2016,03,23,16,02,8.10
2016,03,23,16,03,8.10
2016,03,23,16,04,8.10
2016,03,23,16,05,8.10
2016,03,23,16,06,8.10
2016,03,23,16,07,8.10
2016,03,23,16,08,8.10
2016,03,23,16,09,8.10
2016,03,23,16,10,8.10
2016,03,23,16,11,8.10
2016,03,23,16,12,8.10
2016,03,23,16,13,8.00
2016,03,23,16,14,8.00
2016,03,23,16,15,8.00
2016,03,23,16,16,8.00
2016,03,23,16,17,8.00
2016,03,23,16,18,8.00
2016,03,23,16,19,8.00
2016,03,23,16,20,8.00
2016,03,23,16,21,8.00
2016,03,23,16,22,8.00
2016,03,23,16,23,8.00
2016,03,23,16,24,8.00
2016,03,23,16,25,8.00
2016,03,23,16,26,8.00
2016,03,23,16,27,8.00
2016,03,23,16,28,8.00
2016,03,23,16,29,8.00
2016,03,23,16,30,8.00
2016,03,23,16,31,8.00
2016,03,23,16,32,8.00
2016,03,23,16,33,8.00
2016,03,23,16,34,8.00
2016,03,23,16,35,8.00
2016,03,23,16,36,8.00
2016,03,23,16,37,8.00
2016,03,23,16,38,8.00
2016,03,23,16,39,8.00
2016,03,23,16,40,8.00
2016,03,23,16,41,8.00
2016,03,23,16,42,8.00
2016,03,23,16,43,8.00
2016,03,23,16,44,8.00
2016,03,23,16,45,8.00
2016,03,23,16,46,8.00
2016,03,23,16,47,8.10
2016,03,23,16,48,8.10
2016,03,23,16,49,8.10
2016,03,23,16,50,8.00
2016,03,23,16,51,8.00
2016,03,23,16,52,8.10
2016,03,23,16,53,8.10
2016,03,23,16,54,8.10
2016,03,23,16,55,8.10
2016,03,23,16,56,8.10
2016,03,23,16,57,8.10
2016,03,23,16,58,8.10
2016,03,23,16,59,8.10
2016,03,23,17,00,8.00
2016,03,23,17,01,8.00
2016,03,23,17,02,8.00
2016,03,23,17,03,8.00
2016,03,23,17,04,8.00
2016,03,23,17,05,8.00
2016,03,23,17,06,8.00
2016,03,23,17,07,8.00
2016,03,23,17,08,8.00
2016,03,23,17,09,8.00
2016,03,23,17,10,8.00
2016,03,23,17,11,7.90
2016,03,23,17,12,7.90
2016,03,23,17,13,7.90
2016,03,23,17,14,7.90
2016,03,23,17,15,7.90
2016,03,23,17,16,7.90
2016,03,23,17,17,7.90
2016,03,23,17,18,7.90
2016,03,23,17,19,7.90
2016,03,23,17,20,7.90
2016,03,23,17,21,7.90
2016,03,23,17,22,7.90
2016,03,23,17,23,7.90
2016,03,23,17,24,7.90
2016,03,23,17,25,7.90
2016,03,23,17,26,7.90
2016,03,23,17,27,7.90
2016,03,23,17,28,7.90
2016,03,23,17,29,7.90
2016,03,23,17,30,7.90
2016,03,23,17,31,7.90
2016,03,23,17,32,7.90
2016,03,23,17,33,7.90
2016,03,23,17,34,7.90
2016,03,23,17,35,7.90
2016,03,23,17,36,7.90
2016,03,23,17,37,7.90
2016,03,23,17,38,7.90
2016,03,23,17,39,7.90
2016,03,23,17,40,7.90
2016,03,23,17,41,8.00
2016,03,23,17,42,8.00
2016,03,23,17,43,8.00
2016,03,23,17,44,7.90
2016,03,23,17,45,7.90
2016,03,23,17,46,7.90
2016,03,23,17,47,8.00
2016,03,23,17,48,7.90
2016,03,23,17,49,7.90
2016,03,23,17,50,7.90
2016,03,23,17,51,8.00
2016,03,23,17,52,8.00
2016,03,23,17,53,8.00
2016,03,23,17,54,7.90
2016,03,23,17,55,7.90
2016,03,23,17,56,7.90
2016,03,23,17,57,7.90
2016,03,23,17,58,7.90
2016,03,23,17,59,7.90
2016,03,23,18,00,7.90
2016,03,23,18,01,7.90
2016,03,23,18,02,7.90
2016,03,23,18,03,7.90
2016,03,23,18,04,7.90
2016,03,23,18,05,7.90
2016,03,23,18,06,7.90